sat.trackr.live / text

‹ back to catalog

GHGSAT-C13

NORAD 64548 · 2025-135W

PAYLOAD ACTIVE UNKNOWN

§ Identity

Operator
Country
CA
Launch date
2025-06-23
Launch site
AFWTR
Launch vehicle
Mass (kg)
RCS (m²)

External: N2YO · Heavens-Above · Gunter

§ Orbital elements

Epoch: 2026-05-25T03:50:55.473792Z

Period
94.69 min
Inclination
97.4747°
Eccentricity
0.0001824
Mean motion
15.20815109 rev/d
Perigee alt
502.1 km
Apogee alt
504.6 km
Semi-major
6,881.5 km
B*
2.4719e-4
RAAN
260.7069°
Arg perigee
135.3545°
Mean anomaly
224.7838°
Rev number
5,135

§ Raw data

GHGSAT-C131 64548U 25135W   26145.16036428  .00005383  00000+0  24719-3 0  99952 64548  97.4747 260.7069 0001824 135.3545 224.7838 15.20815109 51358

JSON: /api/v1/satellites/64548 · /tle

For live sub-satellite position, see the globe view (requires WebGL).

§ Visibility from observer

Set your observer location to see the next 7 days of passes ≥ 10°. The values pass through the URL so the page stays shareable.

No JS? Fill the form by hand. The geolocation button needs JavaScript.